| time (UTC) | temp F | wind direction | speed knots | gust knots | rain 1hr in | rain 24hr in | rain mn in | humidity % | barometer mb |
| 20260831130014 | 47 | 0.0 | 0.0 | 0.00 | 0.00 | 0.00 | 94 | 1024.5 | |
| 20260831124515 | 48 | 0.0 | 0.0 | 0.00 | 0.00 | 0.00 | 94 | 1024.8 | |
| 20260831123010 | 48 | 0.0 | 0.0 | 0.00 | 0.00 | 0.00 | 94 | 1024.8 | |
| 20260831121509 | 49 | 0.0 | 0.0 | 0.00 | 0.00 | 0.00 | 93 | 1025.0 | |
| 20260831120011 | 49 | 0.0 | 0.0 | 0.00 | 0.00 | 0.00 | 94 | 1025.1 | |
| 20260831114509 | 49 | 0.0 | 0.0 | 0.00 | 0.00 | 0.00 | 94 | 1025.2 | |
| 20260831113008 | 49 | 0.0 | 0.0 | 0.00 | 0.00 | 0.00 | 95 | 1025.3 | |
| 20260831111505 | 48 | 0.0 | 0.0 | 0.00 | 0.00 | 0.00 | 95 | 1025.4 | |
| 20260831110003 | 47 | 0.0 | 0.0 | 0.00 | 0.00 | 0.00 | 95 | 1025.5 | |
| 20260831104505 | 47 | 0.0 | 0.0 | 0.00 | 0.00 | 0.00 | 94 | 1025.5 | |
| 20260831103059 | 47 | 0.0 | 0.0 | 0.00 | 0.00 | 0.00 | 94 | 1025.6 | |
| 20260831103000 | 47 | 0.0 | 0.0 | 0.00 | 0.00 | 0.00 | 94 | 1025.6 | |
| 20260831101600 | 48 | 0.0 | 0.0 | 0.00 | 0.00 | 0.00 | 93 | 1025.7 | |
| 20260831100119 | 49 | 0.0 | 0.0 | 0.00 | 0.00 | 0.00 | 92 | 1025.8 | |
| 20260831094557 | 50 | 0.0 | 0.0 | 0.00 | 0.00 | 0.00 | 92 | 1025.9 | |
| 20260831093056 | 51 | 0.0 | 0.0 | 0.00 | 0.00 | 0.00 | 91 | 1026.0 | |
| 20260831091601 | 52 | 0.0 | 0.0 | 0.00 | 0.00 | 0.00 | 91 | 1026.0 | |
| 20260831090055 | 52 | 0.0 | 0.0 | 0.00 | 0.00 | 0.00 | 90 | 1026.1 | |
| 20260831084632 | 53 | 0.0 | 0.0 | 0.00 | 0.00 | 0.00 | 89 | 1026.0 | |
| 20260831083054 | 53 | 0.0 | 0.0 | 0.00 | 0.00 | 0.00 | 88 | 1026.1 | |
| 20260831081552 | 54 | 0.0 | 0.0 | 0.00 | 0.00 | 0.00 | 87 | 1026.1 | |
| 20260831080105 | 55 | 0.0 | 0.0 | 0.00 | 0.00 | 0.00 | 85 | 1026.3 | |
| 20260831074600 | 57 | 0.0 | 0.0 | 0.00 | 0.00 | 0.00 | 83 | 1026.1 | |
| 20260831073052 | 58 | 0.0 | 0.0 | 0.00 | 0.00 | 0.00 | 81 | 1026.1 | |
| 20260831071600 | 60 | 0.0 | 0.9 | 0.00 | 0.00 | 0.00 | 78 | 1026.1 | |
| 20260831070047 | 62 | 0.0 | 0.9 | 0.00 | 0.00 | 0.00 | 73 | 1026.2 | |
| 20260831064541 | 63 | 0.0 | 0.9 | 0.00 | 0.00 | 0.00 | 70 | 1026.4 | |
| 20260831063041 | 63 | 0.0 | 0.9 | 0.00 | 0.00 | 0.00 | 71 | 1026.6 | |
| 20260831061544 | 63 | 0.0 | 0.9 | 0.00 | 0.00 | 0.00 | 70 | 1026.5 | |
| 20260831060054 | 64 | 0.0 | 1.7 | 0.00 | 0.00 | 0.00 | 68 | 1026.7 | |
| 20260831054535 | 63 | 0.0 | 2.6 | 0.00 | 0.00 | 0.00 | 70 | 1026.9 | |
| 20260831053036 | 64 | 0.0 | 1.7 | 0.00 | 0.00 | 0.00 | 65 | 1027.2 | |
| 20260831051529 | 65 | 0.0 | 2.6 | 0.00 | 0.00 | 0.00 | 65 | 1027.4 | |
| 20260831050029 | 63 | 0.0 | 1.7 | 0.00 | 0.00 | 0.00 | 69 | 1027.4 | |
| 20260831044523 | 61 | 0.0 | 2.6 | 0.00 | 0.00 | 0.00 | 71 | 1027.6 | |
| 20260831043028 | 62 | 0.9 | 3.5 | 0.00 | 0.00 | 0.00 | 73 | 1027.9 | |
| 20260831041518 | 62 | 0.0 | 2.6 | 0.00 | 0.00 | 0.00 | 72 | 1028.1 | |
| 20260831040015 | 63 | 0.0 | 1.7 | 0.00 | 0.00 | 0.00 | 69 | 1028.4 | |
| 20260831034511 | 62 | 0.0 | 3.5 | 0.00 | 0.00 | 0.00 | 69 | 1028.6 | |
| 20260831033008 | 61 | 0.9 | 3.5 | 0.00 | 0.00 | 0.00 | 71 | 1029.0 | |
| 20260831031513 | 61 | 0.9 | 3.5 | 0.00 | 0.00 | 0.00 | 70 | 1029.2 | |
| 20260831030003 | 60 | 0.0 | 3.5 | 0.00 | 0.00 | 0.00 | 72 | 1029.5 | |
| 20260831024605 | 59 | 0.0 | 2.6 | 0.00 | 0.00 | 0.00 | 76 | 1029.7 | |
| 20260831023057 | 57 | 1.7 | 4.3 | 0.00 | 0.00 | 0.00 | 76 | 1029.9 | |
| 20260831021554 | 57 | 0.0 | 3.5 | 0.00 | 0.00 | 0.00 | 77 | 1030.2 | |
| 20260831020051 | 56 | 0.0 | 3.5 | 0.00 | 0.00 | 0.00 | 78 | 1030.6 | |
| 20260831014557 | 55 | 0.9 | 3.5 | 0.00 | 0.00 | 0.00 | 79 | 1030.7 | |
| 20260831013053 | 54 | 0.0 | 3.5 | 0.00 | 0.00 | 0.00 | 83 | 1031.1 | |
| 20260831011546 | 53 | 0.0 | 1.7 | 0.00 | 0.00 | 0.00 | 82 | 1031.5 | |
| 20260831010039 | 53 | 0.9 | 2.6 | 0.00 | 0.00 | 0.00 | 84 | 1031.5 | |
| 20260831004540 | 51 | 0.0 | 2.6 | 0.00 | 0.00 | 0.00 | 85 | 1031.6 | |
| 20260831003033 | 51 | 0.0 | 2.6 | 0.00 | 0.00 | 0.00 | 86 | 1031.7 | |
| 20260831001536 | 50 | 0.0 | 1.7 | 0.00 | 0.00 | 0.00 | 87 | 1031.9 | |
| 20260831000025 | 50 | 0.0 | 2.6 | 0.00 | 0.00 | 0.00 | 88 | 1031.9 | |
| 20260830234525 | 49 | 0.0 | 2.6 | 0.00 | 0.00 | 0.00 | 88 | 1031.8 | |
| 20260830233019 | 48 | 0.0 | 3.5 | 0.00 | 0.00 | 0.00 | 90 | 1031.9 | |
| 20260830231517 | 48 | 0.9 | 4.3 | 0.00 | 0.00 | 0.00 | 90 | 1032.0 | |
| 20260830230019 | 47 | 0.9 | 3.5 | 0.00 | 0.00 | 0.00 | 90 | 1032.0 | |
| 20260830224519 | 47 | 0.0 | 2.6 | 0.00 | 0.00 | 0.00 | 91 | 1031.9 | |
| 20260830223023 | 47 | 0.0 | 2.6 | 0.00 | 0.00 | 0.00 | 92 | 1031.8 | |
| 20260830221518 | 47 | 0.0 | 2.6 | 0.00 | 0.00 | 0.00 | 92 | 1031.9 | |
| 20260830220014 | 46 | 0.0 | 2.6 | 0.00 | 0.00 | 0.00 | 92 | 1032.0 | |
| 20260830214518 | 46 | 1.7 | 3.5 | 0.00 | 0.00 | 0.00 | 92 | 1031.8 | |
| 20260830213015 | 46 | 0.9 | 2.6 | 0.00 | 0.00 | 0.00 | 92 | 1031.8 | |
| 20260830211513 | 46 | 0.0 | 0.9 | 0.00 | 0.00 | 0.00 | 93 | 1031.7 | |
| 20260830210014 | 46 | 1.7 | 3.5 | 0.00 | 0.00 | 0.00 | 93 | 1031.7 | |
| 20260830204511 | 46 | 0.0 | 2.6 | 0.00 | 0.00 | 0.00 | 93 | 1031.6 | |
| 20260830203020 | 46 | 0.0 | 2.6 | 0.00 | 0.00 | 0.00 | 92 | 1031.5 | |
| 20260830201508 | 47 | 0.0 | 1.7 | 0.00 | 0.00 | 0.00 | 92 | 1031.4 | |
| 20260830200009 | 47 | 0.9 | 3.5 | 0.00 | 0.00 | 0.00 | 92 | 1031.4 | |
| 20260830194506 | 47 | 0.9 | 3.5 | 0.00 | 0.00 | 0.00 | 92 | 1031.3 | |
| 20260830193006 | 47 | 0.0 | 2.6 | 0.00 | 0.00 | 0.00 | 92 | 1031.3 | |
| 20260830191505 | 47 | 1.7 | 3.5 | 0.00 | 0.00 | 0.00 | 92 | 1031.2 | |
| 20260830190003 | 47 | 0.9 | 2.6 | 0.00 | 0.00 | 0.00 | 93 | 1031.1 | |
| 20260830184502 | 47 | 0.0 | 1.7 | 0.00 | 0.00 | 0.00 | 93 | 1031.3 | |
| 20260830183115 | 47 | 0.0 | 0.9 | 0.00 | 0.00 | 0.00 | 93 | 1031.4 | |
| 20260830181559 | 47 | 0.0 | 0.9 | 0.00 | 0.00 | 0.00 | 93 | 1031.4 | |
| 20260830180106 | 47 | 0.0 | 1.7 | 0.00 | 0.00 | 0.00 | 93 | 1031.4 | |
| 20260830174558 | 47 | 0.0 | 0.0 | 0.00 | 0.00 | 0.00 | 93 | 1031.5 | |
| 20260830173111 | 47 | 0.0 | 0.0 | 0.00 | 0.00 | 0.00 | 93 | 1031.6 | |
| 20260830171553 | 47 | 0.0 | 1.7 | 0.00 | 0.00 | 0.00 | 93 | 1031.8 | |
| 20260830170056 | 47 | 0.0 | 3.5 | 0.00 | 0.00 | 0.00 | 93 | 1031.9 | |
| 20260830164557 | 47 | 0.0 | 1.7 | 0.00 | 0.00 | 0.00 | 93 | 1032.1 | |
| 20260830163058 | 47 | 0.0 | 1.7 | 0.00 | 0.00 | 0.00 | 93 | 1032.0 | |
| 20260830161611 | 47 | 0.0 | 2.6 | 0.00 | 0.00 | 0.00 | 93 | 1032.0 | |
| 20260830160049 | 47 | 0.9 | 4.3 | 0.00 | 0.00 | 0.00 | 93 | 1032.1 | |
| 20260830154546 | 47 | 0.0 | 3.5 | 0.00 | 0.00 | 0.00 | 94 | 1032.0 | |
| 20260830153049 | 48 | 0.9 | 3.5 | 0.00 | 0.00 | 0.00 | 94 | 1032.0 | |
| 20260830151546 | 47 | 0.0 | 2.6 | 0.00 | 0.00 | 0.00 | 94 | 1031.9 | |
| 20260830144544 | 47 | 0.9 | 3.5 | 0.00 | 0.00 | 0.00 | 94 | 1031.9 | |
| 20260830143038 | 47 | 0.0 | 2.6 | 0.00 | 0.00 | 0.00 | 94 | 1031.9 | |
| 20260830141538 | 47 | 0.0 | 1.7 | 0.00 | 0.00 | 0.00 | 94 | 1031.9 | |
| 20260830140036 | 47 | 0.9 | 3.5 | 0.00 | 0.00 | 0.00 | 94 | 1031.9 | |
| 20260830134541 | 48 | 0.0 | 1.7 | 0.00 | 0.00 | 0.00 | 94 | 1032.1 | |
| 20260830133038 | 48 | 0.0 | 0.9 | 0.00 | 0.00 | 0.00 | 93 | 1032.1 | |
| 20260830131542 | 48 | 0.0 | 0.9 | 0.00 | 0.00 | 0.00 | 92 | 1032.3 |